Starlink 36133

operational
NORAD ID: 66963 Int'l Des: 2025-288 Owner: SPXS Country: US Constellation: starlink
LEOCIRCULAR

Starlink 36133について

説明を読み込み中...

リアルタイム位置

3D地球を読み込み中...

次回通過

高度履歴

Altitude vs Time

uPlot chart will show altitude changes over time

軌道要素

1 66963C 25288E 25346.09909722 -.01033900 00000+0 -19090-2 0 3467
2 66963 43.0036 171.8492 0001856 272.0034 123.7652 16.01206703 11
Epoch: Dec 12, 2025 • Age: 54 hours

現在のステータス

高度 283.2 km
速度 7.74 km/s
衛星直下点 -1.92°S, 167.87°E
打ち上げ日 Dec 8, 2025
運用期間 5 days
タイプ internet

技術仕様

分類 Payload
質量 575.00 kg
乾燥質量 530.00 kg
総質量 575.00 kg
長さ 0.30 m
直径 4.10 m
スパン 29.00 m
形状 Box + pan
製造者 SPXS
バスタイプ Starlink V2MO
フェーズステータス In Orbit
所有者/国 SPXS/US

大規模コンステレーション

Loading constellations...